Zurück zum Katalog

OPS 0054

DMSP 5A F1

AktivWetterPO
NORAD 4331·PAYLOAD·🇺🇸 United States

Gestartet Feb 11, 1970 von Vandenberg Space Force Base

Loading…

Nächste Überflüge (nächste 24 Stunden)

TLE

AktuellSource: Space-Track

Epoche: Sep 14, 2026, 06:22 UTC

1 04331U 70012A   26257.26597128  .00000132  00000-0  62195-4 0  9996
2 04331  99.0126  79.6544 0058152  69.3390 291.4016 14.34671577949950

Verfolge OPS 0054 in Echtzeit mit AllMySat

Download on the App Store